Weather History for Deming, NM

Change the Weather History Date:

Monday, October 1, 2012

  Actual Average Record
Temperature  
Mean Temperature 69 °F 68 °F  
Max Temperature 85 °F 83 °F 93 °F (1954)
Min Temperature 53 °F 52 °F 38 °F (1986)
Cooling Degree Days 4    
Growing Degree Days 19 (Base 50)    
Moisture  
Dew Point 39 °F    
Average Humidity 44    
Maximum Humidity 71    
Minimum Humidity 16    
Precipitation  
Precipitation 0.00 in 0.04 in 0.30 in (1990)
Month to date precipitation 0.00 0.04  
Year to date precipitation 3.71 8.93  
Sea Level Pressure  
Sea Level Pressure 29.94 in    
Wind  
Wind Speed 5 mph (East)    
Max Wind Speed 14 mph    
Max Gust Speed 20 mph    
Visibility 10 miles    
Events      
T = Trace of Precipitation, MM = Missing Value Source: NWS Daily Summary

Daily Weather History Graph

Daily Weather History Graph

Search for Another Location

Airport:

Trip Planner

Search our weather history database for the weather conditions in past years. The results will help you decide how hot, cold, wet, or windy it might be!

Date:

Astronomy

Oct. 01, 2012 Rise Set
Actual Time 7:05 AM MDT 6:54 PM MDT
Civil Twilight 6:40 AM MDT 7:19 PM MDT
Nautical Twilight 6:12 AM MDT 7:47 PM MDT
Astronomical Twilight 5:43 AM MDT 8:16 PM MDT
Moon 7:43 PM MDT (10/1) 8:29 AM MDT (10/1)
Length of Visible Light 12h 38m
Length of Day
11h 49m
Full, 97% of the Moon is Illuminated
Oct 1
Full
Oct 8
Last Quarter
Oct 15
New
Oct 21
First Quarter
Oct 29
Full

Hourly Weather History & Observations

Time (MDT) Temp. Dew Point Humidity Pressure Visibility Wind Dir Wind Speed Gust Speed Precip Events Conditions
12:53 AM 61.0 °F 46.0 °F 58% 29.87 in 10.0 mi ENE 9.2 mph - N/A   Clear
1:53 AM 62.1 °F 45.0 °F 53% 29.87 in 10.0 mi NE 8.1 mph - N/A   Clear
2:53 AM 59.0 °F 45.0 °F 60% 29.90 in 10.0 mi Calm Calm - N/A   Clear
3:53 AM 57.0 °F 46.0 °F 67% 29.90 in 10.0 mi ENE 4.6 mph - N/A   Clear
4:53 AM 60.1 °F 45.0 °F 57% 29.91 in 10.0 mi Calm Calm - N/A   Clear
5:53 AM 54.0 °F 45.0 °F 72% 29.94 in 10.0 mi ENE 6.9 mph - N/A   Clear
6:53 AM 54.0 °F 43.0 °F 66% 29.98 in 10.0 mi ENE 6.9 mph - N/A   Clear
7:53 AM 60.1 °F 41.0 °F 49% 29.99 in 10.0 mi ENE 5.8 mph - N/A   Clear
8:53 AM 66.9 °F 37.9 °F 34% 30.01 in 10.0 mi ENE 11.5 mph - N/A   Clear
9:53 AM 72.0 °F 39.0 °F 30% 30.01 in 10.0 mi ENE 11.5 mph - N/A   Clear
10:53 AM 75.0 °F 39.9 °F 28% 30.01 in 10.0 mi ENE 5.8 mph - N/A   Clear
12:53 PM 82.0 °F 36.0 °F 19% 29.97 in 10.0 mi East 11.5 mph 19.6 mph N/A   Clear
1:53 PM 82.9 °F 34.0 °F 17% 29.94 in 10.0 mi SE 6.9 mph - N/A   Clear
2:53 PM 84.0 °F 36.0 °F 18% 29.93 in 10.0 mi ESE 5.8 mph 16.1 mph N/A   Clear
3:53 PM 82.9 °F 33.1 °F 17% 29.92 in 10.0 mi Variable 5.8 mph - N/A   Clear
4:53 PM 84.0 °F 33.1 °F 16% 29.91 in 10.0 mi Variable 3.5 mph - N/A   Clear
5:53 PM 82.9 °F 33.1 °F 17% 29.92 in 10.0 mi SE 6.9 mph - N/A   Clear
6:53 PM 78.1 °F 35.1 °F 21% 29.93 in 10.0 mi SSW 3.5 mph - N/A   Clear
7:53 PM 71.1 °F 37.0 °F 29% 29.94 in 10.0 mi Calm Calm - N/A   Clear
8:53 PM 68.0 °F 39.0 °F 35% 29.94 in 10.0 mi SW 3.5 mph - N/A   Clear
9:53 PM 69.1 °F 36.0 °F 30% 29.94 in 10.0 mi SSW 6.9 mph - N/A   Clear
10:53 PM 63.0 °F 37.9 °F 40% 29.95 in 10.0 mi East 3.5 mph - N/A   Clear
11:53 PM 61.0 °F 39.9 °F 46% 29.95 in 10.0 mi NW 4.6 mph - N/A   Clear